Regional Weather Roundup
Issued by NWS

Home | Current Version | Previous Version | Text Only | Print | Product List | Glossary On
Versions: 1 2 3 4 5 6 7 8 9 10 11 12 13 14 15 16 17 18 19 20 21 22 23 24 25 26 27 28 29 30 31 32 33 34 35 36 37 38 39 40 41 42 43 44 45 46 47 48 49 50
000
ASUS43 KIND 050609
RWRIN

WEATHER ROUNDUP FOR INDIANA
NATIONAL WEATHER SERVICE INDIANAPOLIS IN
200 AM EDT SAT SEP 05 2015

NOTE: "FAIR" INDICATES FEW OR NO CLOUDS BELOW 12,000 FEET WITH NO
SIGNIFICANT WEATHER AND/OR OBSTRUCTIONS TO VISIBILITY.

* - STATION DOES NOT REPORT WEATHER SUCH AS PRECIPITATION OR FOG.

+ - STATION NOT QUALITY CONTROLLED BY THE NATIONAL WEATHER SERVICE.
    USE DATA WITH CAUTION...ESPECIALLY DEWPOINT AND RELATIVE
    HUMIDITY OBSERVATIONS.

INZ001>003-010>013-019-020-050700-
NORTHWEST INDIANA

CITY           SKY/WX    TMP DP  RH WIND       PRES   REMARKS
GARY /AIRPORT/ CLEAR     68  66  93 CALM      30.06S FOG
KNOX *+        CLEAR     64  64 100 SE3       30.06F
LA PORTE +     MOCLDY   N/A N/A N/A CALM      30.08S
MICHIGAN CITY+ MOCLDY    68  68 100 E3        30.07S FOG
MONTICELLO +   PTCLDY    70  65  86 CALM      30.06S
6HR MIN TEMP:  69; 6HR MAX TEMP:  73;

RENSSELAER +   CLEAR     68  68 100 CALM      30.06S
VALPARAISO     PTCLDY    68  66  93 CALM      30.06F FOG
6HR MIN TEMP:  67; 6HR MAX TEMP:  78;


$$

LMZ046-743>745-050700-
SOUTHERN LAKE MICHIGAN

STATION/POSITION TIME  TEMP    WIND        PRES    WAVE
                       AIR SEA DIR/SP/G            HT
                 (UTC) (F)     (DEG/KT/KT) (MB)    (FT)
BURNS HARBOR     0500   72     180/  1/  2 1018.3
MICHIGAN CITY    0500   71      80/  2/  3   N/A
5NW MICH CITY    0600   73 74  130/  4/  8   N/A     1

$$

INZ004-005-014>016-021>024-050700-
NORTH CENTRAL INDIANA

CITY           SKY/WX    TMP DP  RH WIND       PRES   REMARKS
GOSHEN         PTCLDY    68  65  90 S5        30.08S
6HR MIN TEMP:  68; 6HR MAX TEMP:  73; 6HR PCP: TRACE;

LOGANSPORT +   CLEAR     64  61  88 S3        30.09S
PERU/GRISSOM   MOCLDY    68  65  92 S3        30.08S
6HR MIN TEMP:  67; 6HR MAX TEMP:  71;

ROCHESTER +    CLEAR     70  68  94 CALM      30.09F
SOUTH BEND     MOCLDY    71  68  90 S3        30.08F
6HR MIN TEMP:  68; 6HR MAX TEMP:  77;

WARSAW +       PTCLDY    66  64  94 CALM      30.09S

$$

INZ006>009-017-018-025>027-050700-
NORTHEAST INDIANA

CITY           SKY/WX    TMP DP  RH WIND       PRES   REMARKS
ANGOLA *+      CLOUDY    70  61  73 CALM      30.10S
AUBURN +       MOCLDY    68  63  83 SW3       30.10F
FORT WAYNE     MOCLDY    68  63  84 SW3       30.10F
6HR MIN TEMP:  67; 6HR MAX TEMP:  69;

HUNTINGTON +   MOCLDY    66  62  85 CALM      30.09F
6HR MIN TEMP:  65; 6HR MAX TEMP:  68;


$$

INZ028-029-035-036-043>045-051>053-050700-
WEST CENTRAL INDIANA

CITY           SKY/WX    TMP DP  RH WIND       PRES   REMARKS
CRAWFORDSVL +  PTCLDY    62  62 100 CALM      30.07F
6HR MIN TEMP:  62; 6HR MAX TEMP:  68; 6HR PCP:  0.01;

GREENCASTLE +  MOCLDY    66  63  88 CALM      30.09S
LAFAYETTE      CLEAR     66  62  87 E3        30.06F
6HR MIN TEMP:  65; 6HR MAX TEMP:  76; 6HR PCP: TRACE;

TERRE HAUTE    MOCLDY    71  65  81 E7        30.06F
6HR MIN TEMP:  70; 6HR MAX TEMP:  83; 6HR PCP: TRACE;


$$

INZ030>032-037>040-046>048-054>057-064-065-050700-
CENTRAL INDIANA

CITY           SKY/WX    TMP DP  RH WIND       PRES   REMARKS
FISHERS *+     PTCLDY    64  64 100 CALM      30.09S
FRANKFORT +    CLEAR    N/A N/A N/A CALM      30.10F HAZE
                                      6HR PCP:  0.01;

GREENWOOD *+   PTCLDY    68  63  83 CALM      30.09F
INDIANAPOLIS   PTCLDY    70  64  81 CALM      30.08F
6HR MIN TEMP:  70; 6HR MAX TEMP:  80; 6HR PCP:  0.03;

-EAGLE CREEK   PTCLDY    69  66  90 SW3       30.08F
6HR MIN TEMP:  69; 6HR MAX TEMP:  78; 6HR PCP:  0.02;

KOKOMO *+      PTCLDY    66  63  88 S5        30.09S
6HR MIN TEMP:  66; 6HR MAX TEMP:  70;

MARION +       MOCLDY    65  60  82 NE7       30.11R
MT COMFORT *+  PTCLDY    64 N/A N/A CALM      30.09S
SHELBYVILLE    MOCLDY    68  64  87 CALM      30.08F
6HR MIN TEMP:  68; 6HR MAX TEMP:  75;

ZIONSVILLE +   CLEAR     64  61  90 CALM      30.09F
6HR MIN TEMP:  64; 6HR MAX TEMP:  75;


$$

INZ033-034-041-042-049-050-058-059-050700-
EAST CENTRAL INDIANA

CITY           SKY/WX    TMP DP  RH WIND       PRES   REMARKS
MUNCIE         MOCLDY    64  63  96 CALM      30.10F
6HR MIN TEMP:  64; 6HR MAX TEMP:  70; 6HR PCP: TRACE;


$$

INZ060-061-067>069-081>083-085>088-050700-
SOUTHWEST INDIANA

CITY           SKY/WX    TMP DP  RH WIND       PRES   REMARKS
EVANSVILLE     MOCLDY    74  70  87 MISG      30.05F FOG
6HR MIN TEMP:  73; 6HR MAX TEMP:  87;

HUNTINGBURG *+ PTCLDY    73  64  73 SE9       30.06F
6HR MIN TEMP:  73; 6HR MAX TEMP:  86;

WASHINGTON +   MOCLDY    73  67  83 SE6       30.05S
6HR MIN TEMP:  73; 6HR MAX TEMP:  82;


$$

INZ062-063-066-070>080-084-089>092-050700-
SOUTH CENTRAL AND SOUTHEAST INDIANA

CITY           SKY/WX    TMP DP  RH WIND       PRES   REMARKS
BLOOMINGTON    MOCLDY    73  65  75 E3        30.08S
6HR MIN TEMP:  72; 6HR MAX TEMP:  82;

MADISON *+     PTCLDY    68  64  88 E3        30.10F
NORTH VERNON + PTCLDY    68  68 100 CALM      30.09F
SEYMOUR +      MOCLDY    68  64  88 CALM      30.08F

$$



USA.gov is the U.S. government's official web portal to all federal, state and local government web resources and services.